User: anonymous   Login
Location: Unspecified
(29.5960°N, 0.0000°E)
Time: 03:22:09
(UTC+00:00)
Language:

Cosmos 2058 Rocket - Orbit

View from above orbital plane
View from above orbital plane
View from above satellite
View from above satellite

Ground track
Ground track

The orbit is defined by the following mean orbital elements,

1 20466U          26088.17886766 +.00000000 +00000-0 +76173-4 0 00002
2 20466  82.4998 249.0765 0018612 233.1178 126.8332 14.83587281    08
Epoch (UTC): 29 March 2026 04:17:34
Eccentricity: 0.0018612
inclination: 82.4998°
perigee height: 605 km
apogee height: 631 km
right ascension of ascending node: 249.0765°
argument of perigee: 233.1178°
revolutions per day: 14.83587281
mean anomaly at epoch: 126.8332°

The dashed part of the orbit path shows where the satellite is in the earth's shadow,  

DLR